ATLAS CENTAUR 2 1 00694U 63047A 26094.56036830 .00004058 00000+0 48425-3 0 9993 2 00694 30.3578 51.0513 0547105 308.2971 46.9630 14.12189035135285 THOR AGENA D R/B 1 00733U 64002A 26094.96620504 .00000260 00000+0 10987-3 0 9993 2 00733 99.1208 109.7350 0032936 180.2636 179.8535 14.34034822242061 SL-3 R/B 1 00877U 64053B 26094.83357945 .00000354 00000+0 92560-4 0 9992 2 00877 65.0759 254.5847 0080627 284.0046 75.2099 14.61387753270611 SL-8 R/B 1 02802U 67045B 26094.87162412 .00000379 00000+0 11233-3 0 9997 2 02802 74.0100 299.1926 0065062 299.7348 59.7345 14.45643644 92808 SL-8 R/B 1 03230U 68040B 26094.86256306 .00005141 00000+0 37810-3 0 9995 2 03230 74.0298 260.2016 0023265 73.2164 287.1575 15.03452818 93945 OAO 2 1 03597U 68110A 26094.44633048 .00000365 00000+0 10337-3 0 9993 2 03597 34.9923 121.4125 0005182 39.6929 320.4140 14.47323404 22837 ISIS 1 1 03669U 69009A 26094.91570249 .00000172 00000+0 11070-3 0 9997 2 03669 88.4491 152.4449 1707769 36.2565 334.2861 11.30421217351494 SERT 2 1 04327U 70009A 26094.83031837 .00000056 00000+0 13297-3 0 9991 2 04327 99.2795 36.4984 0005746 96.2776 280.0582 13.58732750783444 SL-3 R/B 1 05118U 71028B 26094.91642336 .00050289 00000+0 53530-3 0 9990 2 05118 81.2384 19.5842 0015385 179.5051 180.6222 15.63641495992760 ASTEX 1 1 05560U 71089A 26094.89402227 .00000656 00000+0 16683-3 0 9999 2 05560 92.7081 160.2276 0015478 4.9390 355.1965 14.50798251866106 SL-8 R/B 1 05730U 71119B 26094.53534539 .00009718 00000+0 50787-3 0 9996 2 05730 73.8840 127.3913 0545929 88.5438 277.8157 14.38354020659202 OAO 3 (COPERNICUS) 1 06153U 72065A 26094.88028108 .00000428 00000+0 92101-4 0 9991 2 06153 35.0046 148.0923 0006541 9.7617 160.2581 14.60019918850025 ATLAS CENTAUR R/B 1 06155U 72065B 26094.50313852 .00001905 00000+0 26172-3 0 9990 2 06155 35.0006 154.4664 0033967 228.2653 131.5140 14.77766402845083 SL-8 R/B 1 08459U 75112B 26094.93545995 .00000312 00000+0 11128-3 0 9993 2 08459 74.0620 330.6354 0014707 53.2570 306.9932 14.38219532635646 SL-3 R/B 1 10114U 77057B 26094.93485986 .00016043 00000+0 32697-3 0 9999 2 10114 97.5804 268.0311 0007253 179.1650 180.9612 15.46294478672382 SEASAT 1 1 10967U 78064A 26094.91970440 .00000445 00000+0 16258-3 0 9990 2 10967 108.0068 180.5347 0002734 272.3570 87.7263 14.46184089510305 SL-14 R/B 1 11267U 79011B 26094.93864191 .00000900 00000+0 86323-4 0 9991 2 11267 82.5220 71.6554 0015294 335.2956 24.7529 14.91945908532694 SL-8 R/B 1 11574U 79089B 26094.89386360 .00000426 00000+0 13668-3 0 9993 2 11574 74.0702 42.5334 0016503 211.4984 148.5186 14.42369362439880 SL-14 R/B 1 11672U 80005B 26094.90185328 .00000772 00000+0 75441-4 0 9997 2 11672 82.5108 282.3644 0017224 77.3957 282.9188 14.90962725480393 SL-8 R/B 1 12139U 81003B 26094.88522346 .00024463 00000+0 60803-3 0 9995 2 12139 82.9342 265.7765 0259681 87.6586 275.4349 15.12215043318634 SL-3 R/B 1 12465U 81046B 26094.93026602 .00015346 00000+0 34894-3 0 9995 2 12465 81.2291 258.2120 0018049 288.7906 71.1379 15.42689030442472 SL-3 R/B 1 12904U 81103B 26094.88046301 .00006322 00000+0 27759-3 0 9995 2 12904 81.1608 182.7080 0013089 193.6773 166.4106 15.21705640977216 SL-3 R/B 1 13068U 82013B 26094.87820315 .00004909 00000+0 21069-3 0 9999 2 13068 81.1720 130.0703 0023520 92.0471 268.3454 15.22262851408332 SL-3 R/B 1 13154U 82039B 26094.89525016 .00003786 00000+0 22807-3 0 9998 2 13154 81.1555 185.7432 0028165 237.0159 122.8358 15.10240843385597 SL-3 R/B 1 13403U 82079B 26094.91298678 .00006899 00000+0 27161-3 0 9999 2 13403 81.1473 162.1118 0025373 78.7840 281.6244 15.25161678381697 SL-14 R/B 1 13553U 82092B 26094.56696921 .00000670 00000+0 72393-4 0 9993 2 13553 82.5650 117.1895 0019470 211.5050 266.9219 14.86691561332776 SL-3 R/B 1 13819U 83010B 26094.70166774 .00018033 00000+0 35142-3 0 9995 2 13819 81.1031 330.3377 0015387 320.2182 39.7934 15.47271831361965 SL-3 R/B 1 14208U 83075B 26094.95955596 .00013946 00000+0 35900-3 0 9994 2 14208 97.6136 100.5443 0022912 132.5226 227.7959 15.39083669334194 COSMOS 1536 1 14699U 84013A 26094.91775404 .00008842 00000+0 36046-3 0 9996 2 14699 82.5422 81.7635 0014166 181.8485 178.2702 15.24216005276612 SL-14 R/B 1 14820U 84027B 26094.81983432 .00000745 00000+0 82303-4 0 9990 2 14820 82.5429 220.5054 0016645 244.8951 115.0539 14.86006771251518 SL-8 R/B 1 15483U 85006B 26094.76739528 .00000445 00000+0 15618-3 0 9994 2 15483 74.0462 213.1614 0017454 123.1031 27.3503 14.37803171157778 SL-12 R/B(2) 1 15772U 85042D 26094.93332769 .00000183 00000+0 10369-3 0 9997 2 15772 71.1101 32.2814 0032841 84.5474 337.8922 14.21990486118126 SL-14 R/B 1 15945U 85069B 26094.79664861 .00000759 00000+0 82842-4 0 9998 2 15945 82.5304 0.3915 0020294 104.6700 255.6768 14.86463429176719 SL-16 R/B 1 16182U 85097B 26094.96606346 -.00000145 00000+0 -48719-4 0 9992 2 16182 71.0009 85.2315 0009154 228.2568 162.3715 14.16602442 90951 SL-14 R/B 1 16496U 86006B 26094.90159771 .00001265 00000+0 13162-3 0 9995 2 16496 82.5263 235.0632 0076377 184.7222 175.3285 14.86863128153109 COSMOS 1743 1 16719U 86034A 26094.88350779 .00051517 00000+0 61075-3 0 9993 2 16719 82.5319 46.2938 0005752 153.2780 206.8774 15.60992528184331 SL-14 R/B 1 16792U 86046B 26094.94087812 .00000692 00000+0 76713-4 0 9993 2 16792 82.4817 55.3730 0024115 138.3201 221.9859 14.85618716130301 SL-14 R/B 1 16882U 86055B 26094.54189134 .00000712 00000+0 79241-4 0 9991 2 16882 82.5169 102.3674 0017441 244.6435 232.8075 14.85668208123209 AJISAI (EGS) 1 16908U 86061A 26094.90535434 -.00000095 00000+0 16160-4 0 9991 2 16908 50.0121 12.7348 0011358 354.5110 118.7522 12.44515640471265 SL-14 R/B 1 17567U 87024B 26094.89738534 .00000671 00000+0 73517-4 0 9995 2 17567 82.5265 68.1246 0018453 169.0737 191.0884 14.86159841 92028 COSMOS 1833 1 17589U 87027A 26094.91095454 -.00000318 00000+0 -14400-3 0 9997 2 17589 70.9164 270.9030 0022948 175.3170 184.8170 14.13043920 14022 SL-16 R/B 1 17590U 87027B 26094.80852923 .00000266 00000+0 15585-3 0 9994 2 17590 71.0026 221.4522 0002864 76.3177 283.8265 14.17168775 19044 SL-14 R/B 1 17912U 87038B 26094.90579663 .00000669 00000+0 74608-4 0 9991 2 17912 82.4978 272.1029 0020723 78.9709 281.3836 14.85395853 83123 COSMOS 1844 1 17973U 87041A 26094.91815963 .00000315 00000+0 18812-3 0 9991 2 17973 70.9016 338.8555 0031547 339.3650 20.6195 14.14562430 7299 SL-14 R/B 1 18153U 87055B 26094.94537934 .00000542 00000+0 59645-4 0 9991 2 18153 82.4994 324.2880 0019178 288.3292 71.5838 14.85656329 73835 COSMOS 1867 1 18187U 87060A 26094.77903752 .00000005 00000+0 39452-4 0 9998 2 18187 65.0102 233.6386 0014961 280.1178 79.8218 14.31507484 23670 SL-14 R/B 1 18749U 88001B 26094.60578438 .00000718 00000+0 80007-4 0 9992 2 18749 82.5156 170.9931 0018894 148.7290 211.5054 14.85557828 45874 COSMOS 1933 1 18958U 88020A 26094.82591433 .00006671 00000+0 32423-3 0 9991 2 18958 82.5145 225.0467 0005372 107.2084 252.9738 15.18257207 54196 SL-3 R/B 1 19046U 88032B 26094.93256738 .00006343 00000+0 29302-3 0 9999 2 19046 97.5225 78.1022 0027070 139.4032 220.9228 15.20219809 56092 SL-16 R/B 1 19120U 88039B 26094.91052802 -.00000077 00000+0 -13391-4 0 9995 2 19120 71.0174 13.1036 0023862 296.8939 62.9748 14.19620726962108 COSMOS 1953 1 19210U 88050A 26094.61158152 .00010206 00000+0 36105-3 0 9990 2 19210 82.5057 132.1670 0011848 41.4929 318.7208 15.28952983 41740 SL-8 R/B 1 19257U 88053B 26094.93625697 .00000287 00000+0 10145-3 0 9996 2 19257 74.0468 64.0813 0021344 239.7897 178.9428 14.38934042980370 COSMOS 1975 1 19573U 88093A 26094.45711548 .00010537 00000+0 37832-3 0 9990 2 19573 82.5161 91.8045 0013356 82.6260 277.6497 15.28451512 23347 SL-14 R/B 1 19574U 88093B 26094.86232895 .00000712 00000+0 79128-4 0 9998 2 19574 82.5346 17.4800 0019550 314.8443 108.6070 14.85689486 4907 SL-16 R/B 1 19650U 88102B 26094.96916848 .00000282 00000+0 16675-3 0 9991 2 19650 70.9972 96.2005 0015419 323.2532 36.7533 14.16155709930614 INTERCOSMOS 24 1 20261U 89080A 26094.45938575 .00000593 00000+0 17458-3 0 9997 2 20261 82.6016 87.6179 1187009 232.9570 115.7144 12.59590811670049 SL-14 R/B 1 20262U 89080C 26094.64149723 .00000519 00000+0 14698-3 0 9999 2 20262 82.5946 156.5336 1230915 125.4608 246.7757 12.50518925663397 DELTA 1 R/B 1 20323U 89089B 26094.55549125 .00000550 00000+0 14441-3 0 9997 2 20323 97.0684 297.8759 0070139 41.8048 318.8477 14.50686328899487 ARIANE 40 R/B 1 20443U 90005H 26094.73356104 .00000449 00000+0 15633-3 0 9994 2 20443 98.3029 154.6120 0011272 123.5613 236.6654 14.39889263896557 DELTA 2 R/B(1) 1 20453U 90008B 26094.90837202 .00076080 00000+0 79145-3 0 9992 2 20453 35.6044 2.3352 0076175 145.6106 214.9593 15.59730881930228 COSMOS 2058 1 20465U 90010A 26094.86485641 .00006287 00000+0 36857-3 0 9994 2 20465 82.4727 21.6381 0008078 237.1930 122.8522 15.11590190946191 SL-14 R/B 1 20466U 90010B 26094.92344080 .00000694 00000+0 81098-4 0 9997 2 20466 82.5007 242.7404 0019066 209.7617 150.2515 14.83596455932372 SL-14 R/B 1 20511U 90018B 26094.76388322 .00000700 00000+0 84741-4 0 9991 2 20511 82.5243 198.7248 0016392 11.3524 348.8057 14.82172840926448 HST 1 20580U 90037B 26094.64776769 .00011124 00000+0 36493-3 0 9993 2 20580 28.4724 222.8665 0002193 61.0619 299.0197 15.29923140777298 SL-16 R/B 1 20625U 90046B 26094.85313983 .00000008 00000+0 28972-4 0 9994 2 20625 70.9988 242.9608 0016569 265.7039 94.2190 14.15019317852099 COSMOS 2084 1 20663U 90055A 26094.82156225 .00004272 00000+0 30627-3 0 9993 2 20663 62.7898 246.4378 0012885 199.0810 160.9810 15.05816242940254 SL-6 R/B(2) 1 20666U 90055D 26094.90660984 .00002719 00000+0 21008-3 0 9994 2 20666 62.7827 164.6878 0029105 352.8710 7.1972 15.03728874942137 SL-8 R/B 1 20775U 90078B 26094.84231196 .00014620 00000+0 43287-3 0 9999 2 20775 82.9043 227.7728 0357452 285.7274 70.4793 14.89848269813196 SL-8 R/B 1 21088U 91006B 26094.94146116 .00000121 00000+0 10682-3 0 9991 2 21088 82.9433 150.5275 0021424 324.6649 209.0018 13.77498753767680 OKEAN-3 1 21397U 91039A 26094.87687091 .00004477 00000+0 31345-3 0 9991 2 21397 82.5149 311.4677 0012888 239.9788 120.0161 15.04970529868976 COSMOS 2151 1 21422U 91042A 26094.89692051 .00003395 00000+0 26909-3 0 9996 2 21422 82.4962 58.3887 0011706 339.4837 20.5915 15.00229085867123 SL-14 R/B 1 21423U 91042B 26094.75496408 .00000720 00000+0 87926-4 0 9996 2 21423 82.4960 195.7468 0017781 151.2856 208.9341 14.81858148856931 ERS-1 1 21574U 91050A 26094.90280676 .00000450 00000+0 15838-3 0 9999 2 21574 98.7858 113.7942 0032948 123.5661 236.8680 14.39470905819501 ARIANE 40 R/B 1 21610U 91050F 26094.89140541 .00000429 00000+0 14078-3 0 9995 2 21610 98.1957 146.1375 0003115 19.9269 340.2043 14.42914096822776 INTERCOSMOS 25 1 21819U 91086A 26094.90691613 .00002138 00000+0 41335-3 0 9993 2 21819 82.5999 294.1565 1486278 60.4453 313.6503 12.12094592499867 SL-8 R/B 1 21876U 92008B 26094.91012486 .00000027 00000+0 11892-4 0 9998 2 21876 82.9244 248.2685 0035757 62.6400 48.9289 13.75969903713020 SL-8 R/B 1 21938U 92020B 26094.90112664 .00000019 00000+0 41025-5 0 9992 2 21938 82.9290 134.2984 0028069 222.3660 311.5788 13.75550683704739 USA 81 1 21949U 92023A 26094.50608602 .00000238 00000+0 80713-4 0 9994 2 21949 85.0039 116.5408 0001511 70.2661 289.8694 14.32376919 98487 COSMOS 2219 1 22219U 92076A 26094.90629916 -.00000161 00000+0 -59762-4 0 9995 2 22219 71.0606 323.2679 0017651 167.2287 192.9286 14.14088630722084 SL-16 R/B 1 22220U 92076B 26094.55386778 -.00000104 00000+0 -28091-4 0 9992 2 22220 70.9983 133.8946 0010935 48.8095 103.2636 14.16862650725499 COSMOS 2221 1 22236U 92080A 26094.91938075 .00003433 00000+0 30070-3 0 9992 2 22236 82.5018 253.9473 0015674 103.6116 256.6853 14.96323797784718 SL-16 R/B 1 22285U 92093B 26094.88739858 -.00000094 00000+0 -23699-4 0 9996 2 22285 71.0219 309.2721 0006653 268.6039 91.4322 14.15456114716860 COSMOS 2228 1 22286U 92094A 26094.85133705 .00003528 00000+0 30100-3 0 9991 2 22286 82.5200 212.2620 0017275 209.7732 150.2510 14.97338680779978 SL-16 R/B 1 22566U 93016B 26094.93046639 .00000352 00000+0 20535-3 0 9998 2 22566 71.0072 160.0718 0012408 280.6461 79.3264 14.15309038705888 COSMOS 2242 1 22626U 93024A 26094.84490977 .00002922 00000+0 25335-3 0 9990 2 22626 82.5178 241.6916 0015562 213.1372 146.8877 14.96675850784302 SL-16 R/B 1 22803U 93059B 26094.87425304 .00000128 00000+0 87252-4 0 9993 2 22803 70.9905 315.9112 0017021 177.7651 182.3552 14.17235053683244 ARIANE 40 R/B 1 22830U 93061H 26094.81507339 .00000297 00000+0 12454-3 0 9997 2 22830 98.4868 163.1810 0010398 200.8087 159.2675 14.32875892697844 COSMOS 2278 1 23087U 94023A 26094.48257341 .00000026 00000+0 38102-4 0 9998 2 23087 71.0505 121.1361 0009347 335.2940 24.7734 14.14374965648452 SL-16 R/B 1 23088U 94023B 26094.87087980 .00000140 00000+0 96692-4 0 9997 2 23088 71.0032 15.9034 0005599 262.9436 97.1050 14.15019796649798 SL-16 R/B 1 23343U 94074B 26094.70866836 .00000763 00000+0 10880-3 0 9999 2 23343 97.7069 124.4683 0007721 128.9076 350.4681 14.79439977691095 SL-16 R/B 1 23405U 94077B 26094.91293122 -.00000214 00000+0 -84829-4 0 9994 2 23405 70.9819 297.3215 0001553 188.3055 171.8043 14.15567829619944 ARIANE 40+ R/B 1 23561U 95021B 26094.96854426 .00000398 00000+0 14067-3 0 9999 2 23561 98.4452 166.0891 0007814 68.8961 103.8884 14.39792493623026 SL-16 R/B 1 23705U 95058B 26094.49720238 -.00000027 00000+0 10564-4 0 9999 2 23705 71.0191 126.0751 0010316 78.4433 281.7848 14.15497853571503 SL-16 R/B 1 24298U 96051B 26094.51992924 .00000121 00000+0 92385-4 0 9992 2 24298 70.7580 120.5674 0013077 105.5469 254.7096 14.12423480525292 ORBVIEW 2 (SEASTAR) 1 24883U 97037A 26094.90449647 .00000369 00000+0 14432-3 0 9999 2 24883 98.8612 259.9172 0002039 12.4811 347.6423 14.35514478512231 SL-16 R/B 1 25400U 98043G 26094.83230293 .00000090 00000+0 56592-4 0 9995 2 25400 98.8299 48.3883 0008949 302.4296 57.6018 14.26056160442714 SL-16 R/B 1 25407U 98045B 26094.49545407 .00000099 00000+0 74018-4 0 9994 2 25407 71.0090 127.3073 0008236 330.3015 29.7640 14.16193596430756 ISS (ZARYA) 1 25544U 98067A 26094.84355279 .00009370 00000+0 17936-3 0 9991 2 25544 51.6331 303.0545 0006326 272.5089 87.5175 15.48773610560388 CZ-4B R/B 1 25732U 99025C 26094.77899376 .00000077 00000+0 58278-4 0 9998 2 25732 98.6572 138.4361 0035986 269.7715 205.8764 14.18270852391869 OKEAN-O 1 25860U 99039A 26094.87783163 .00000941 00000+0 13014-3 0 9990 2 25860 97.9388 154.4960 0000936 104.7627 255.3689 14.80380102438269 SL-16 R/B 1 25861U 99039B 26094.90063818 .00000813 00000+0 10974-3 0 9993 2 25861 97.9910 153.9508 0015119 167.3303 192.8292 14.81769983440748 DELTA 2 R/B 1 25876U 99041E 26094.56343044 .00000986 00000+0 19802-3 0 9996 2 25876 51.7610 197.9201 0502625 64.7301 300.4839 14.11899472366682 HELIOS 1B 1 25977U 99064A 26094.74213903 .00003305 00000+0 36820-3 0 9990 2 25977 98.1667 357.7485 0001468 43.2225 316.9106 14.87808282689136 TERRA 1 25994U 99068A 26094.88170836 .00000660 00000+0 14341-3 0 9990 2 25994 97.9538 147.3086 0003672 97.8538 348.8834 14.61044652398909 SL-16 R/B 1 26070U 00006B 26094.94150252 .00000065 00000+0 57489-4 0 9997 2 26070 71.0040 42.6350 0015185 148.6186 211.5847 14.15831226352273 TITAN 4B R/B 1 26474U 00047B 26094.93254267 .00004625 00000+0 28824-3 0 9996 2 26474 67.9900 326.7057 0040453 4.7278 355.4245 15.09813191396879 ENVISAT 1 27386U 02009A 26094.88573884 .00000174 00000+0 70163-4 0 9991 2 27386 98.3771 47.8665 0001173 82.1814 292.4478 14.39046647262948 IDEFIX & ARIANE 42P R/B 1 27422U 02021B 26094.85551982 .00000404 00000+0 16978-3 0 9997 2 27422 98.5899 33.1539 0012861 108.3541 251.9042 14.31045191247769 AQUA 1 27424U 02022A 26094.88931126 .00001431 00000+0 29508-3 0 9999 2 27424 98.4219 62.7405 0001424 115.1380 266.0739 14.62041239272565 CZ-4B R/B 1 27432U 02024C 26094.91241813 .00000064 00000+0 56076-4 0 9993 2 27432 98.8781 148.1802 0049230 309.2966 224.3480 14.14552657232941 MIDORI II (ADEOS-II) 1 27597U 02056A 26094.84528942 .00000443 00000+0 19183-3 0 9991 2 27597 98.7815 53.5113 0000372 21.3553 338.7644 14.29306420214035 H-2A R/B 1 27601U 02056E 26094.86946428 .00000433 00000+0 16572-3 0 9990 2 27601 98.3250 54.2458 0071422 83.6760 297.2027 14.33780134217866 CZ-4B R/B 1 28059U 03049C 26094.92773953 .00000486 00000+0 12267-3 0 9994 2 28059 98.6898 90.8665 0048701 150.4516 209.9448 14.55045125190413 CZ-2C R/B 1 28222U 04012C 26094.93353459 .00064840 00000+0 58244-3 0 9992 2 28222 97.7164 162.7695 0013722 207.1898 152.8645 15.67945343208387 SL-16 R/B 1 28353U 04021B 26094.62069741 .00000394 00000+0 22983-3 0 9996 2 28353 71.0013 178.0763 0005429 337.1788 22.9092 14.14600074126509 CZ-4B R/B 1 28415U 04035C 26094.62394648 .00011633 00000+0 40307-3 0 9995 2 28415 97.3450 128.5576 0030305 234.4339 125.4076 15.29549836183877 CZ-2C R/B 1 28480U 04046B 26094.77984902 .00000288 00000+0 12152-3 0 9994 2 28480 98.1975 8.1380 0140613 77.8238 283.8654 14.27002982112222 ARIANE 5 R/B 1 28499U 04049H 26094.90593022 .00001268 00000+0 14603-3 0 9993 2 28499 98.2664 264.3516 0082815 266.0568 93.1175 14.85318956149687 CZ-2D R/B 1 28738U 05024B 26094.60169350 .00053268 00000+0 59285-3 0 9995 2 28738 97.3568 110.7423 0001876 278.9046 81.2000 15.62704399143829 ALOS (DAICHI) 1 28931U 06002A 26094.84794301 .00002299 00000+0 39249-3 0 9999 2 28931 98.1263 50.6810 0001135 115.6265 244.5058 14.69897325 77321 H-2A R/B 1 28932U 06002B 26094.93262298 .00012729 00000+0 62400-3 0 9999 2 28932 98.2468 244.2329 0052503 151.5284 208.8833 15.17058759 98412 RESURS-DK 1 1 29228U 06021A 26094.91743092 .00003521 00000+0 20552-3 0 9995 2 29228 69.9330 169.1756 0002033 32.8019 327.3273 15.12913193 91496 CZ-4B R/B 1 29507U 06046C 26094.59748842 .00007807 00000+0 39078-3 0 9998 2 29507 97.5536 139.4339 0033309 175.0897 185.0670 15.17189976 63973 CZ-2C R/B 1 31114U 07010B 26094.93338746 .00000191 00000+0 10692-3 0 9993 2 31114 98.4006 206.9003 0058378 216.9692 142.7456 14.20256458983449 COSMO-SKYMED 1 1 31598U 07023A 26094.93964103 .00005363 00000+0 47420-3 0 9990 2 31598 97.8872 286.1860 0001638 99.7903 260.3503 14.96742745 18833 COSMOS 2428 1 31792U 07029A 26094.87044848 -.00000029 00000+0 98959-5 0 9990 2 31792 70.9422 148.3950 0009695 249.8870 110.1209 14.12948929967796 SL-16 R/B 1 31793U 07029B 26094.52056172 -.00000095 00000+0 -24177-4 0 9990 2 31793 70.9738 118.0874 0002913 276.7469 194.4392 14.14843982969026 KORONAS-FOTON 1 33504U 09003A 26094.88792600 .00016110 00000+0 35055-3 0 9997 2 33504 82.4288 248.6221 0011416 64.3596 295.8830 15.44096650949782 CZ-2C R/B 1 37731U 11030B 26094.88010056 .00001933 00000+0 24921-3 0 9991 2 37731 97.8589 51.6285 0050917 265.0790 107.4510 14.81318160793973 H-2A R/B 1 38341U 12025E 26094.89377195 .00003500 00000+0 31760-3 0 9996 2 38341 98.4775 64.0494 0043331 226.0845 133.6794 14.95356862752139 SHIJIAN-16 (SJ-16) 1 39358U 13057A 26094.90734971 .00001630 00000+0 16153-3 0 9993 2 39358 74.9710 135.4553 0015394 44.5697 315.6726 14.92443163675411 SL-4 R/B 1 39679U 14021B 26094.72169092 .00023534 00000+0 50054-3 0 9992 2 39679 51.6069 210.1949 0094343 197.9983 161.7654 15.40177393660280 ALOS-2 1 39766U 14029A 26094.28401351 -.00000060 00000+0 -11251-5 0 9994 2 39766 97.9196 192.5087 0001932 98.8901 261.2529 14.79450566640651 YAOGAN-29 1 41038U 15069A 26094.97341760 .00001202 00000+0 15443-3 0 9999 2 41038 98.0100 123.4688 0000151 169.9466 190.1750 14.83027806559771 ASTRO-H (HITOMI) 1 41337U 16012A 26094.94146210 .00003970 00000+0 23135-3 0 9991 2 41337 30.9987 187.1155 0009672 235.8746 124.0975 15.10181900556205 HXMT (HUIYAN) 1 42758U 17034A 26094.84063969 .00009731 00000+0 47767-3 0 9990 2 42758 43.0141 231.2457 0030867 38.1772 322.1255 15.17823775486517 SAOCOM 1A 1 43641U 18076A 26094.81958130 .00001432 00000+0 18641-3 0 9998 2 43641 97.8896 282.6237 0001476 86.6110 273.5272 14.82153107405231 H-2A R/B 1 43682U 18084L 26094.88556735 .00022296 00000+0 51044-3 0 9999 2 43682 98.8682 317.8921 0023260 292.9823 66.8966 15.42544775409812 SAOCOM 1B 1 46265U 20059A 26094.91834228 .00000614 00000+0 83728-4 0 9999 2 46265 97.8882 281.8176 0001427 83.0576 277.0799 14.82151036302639 CSS (TIANHE) 1 48274U 21035A 26094.30151222 .00040275 00000+0 44965-3 0 9991 2 48274 41.4679 52.1686 0003749 122.2718 237.8485 15.62002278281610 COSMOS 2550 1 48865U 21056A 26094.40472941 .00002815 00000+0 91326-4 0 9997 2 48865 67.1431 323.0974 0008430 269.6767 90.3422 15.33837300267403 CZ-2C R/B 1 52794U 22058K 26094.27777953 .00056284 00000+0 75594-3 0 9999 2 52794 50.1866 186.4747 0041147 310.7638 48.9764 15.56303456214112 CZ-2C R/B 1 54039U 22132E 26094.93955842 .00050326 00000+0 51975-3 0 9992 2 54039 97.2955 99.1025 0015695 2.6224 357.5115 15.64475351194471 GSLV R/B 1 54149U 22138AN 26094.92668524 .00003919 00000+0 33682-3 0 9998 2 54149 87.3847 157.5772 0023610 60.4517 299.9064 14.96951501187850 XRISM 1 57800U 23137A 26094.45855344 .00008415 00000+0 47448-3 0 9992 2 57800 31.0012 116.9489 0007837 297.7680 62.2163 15.11821251141699 ACS3 1 59588U 24077B 26094.76788555 .00040672 00000+0 31622-1 0 9990 2 59588 97.1949 30.0195 0073359 18.0260 342.3481 13.90931246 97827 HTV-X1 1 66174U 25241A 26094.93054386 .00007406 00000+0 24350-3 0 9990 2 66174 51.6361 306.5734 0007342 273.9115 86.1027 15.32540241 24962 SZ-21 MODULE 1 66515U 25246C 26094.27025469 .00061134 00000+0 47837-3 0 9994 2 66515 41.4750 45.6530 0003225 227.1909 132.8663 15.70682632 22093